owner,sensor,date,latitude,longitude,vertical_datum,sea_water_practical_salinity,qcFlag 
DISL,ioos:station:DISL:CATA:1,2009-07-01T00:00:00Z,30.3085,-88.1395,2.434,12.16,1111122 
DISL,ioos:station:DISL:CATA:1,2009-07-01T00:30:00Z,30.3085,-88.1395,2.452,11.95,1111122 
DISL,ioos:station:DISL:CATA:1,2009-07-01T01:00:00Z,30.3085,-88.1395,2.452,12.01,1111122 
DISL,ioos:station:DISL:CATA:1,2009-07-01T01:30:00Z,30.3085,-88.1395,2.46,12.83,1111122 
DISL,ioos:station:DISL:CATA:1,2009-07-01T02:00:00Z,30.3085,-88.1395,2.485,13.45,1111122 
DISL,ioos:station:DISL:CATA:1,2009-07-01T02:30:00Z,30.3085,-88.1395,2.499,13.24,1111122 
DISL,ioos:station:DISL:CATA:1,2009-07-01T03:00:00Z,30.3085,-88.1395,2.506,13.53,1111122 
DISL,ioos:station:DISL:CATA:1,2009-07-01T03:30:00Z,30.3085,-88.1395,2.536,13.31,1111122 
DISL,ioos:station:DISL:CATA:1,2009-07-01T04:00:00Z,30.3085,-88.1395,2.553,13.44,1111122 
DISL,ioos:station:DISL:CATA:1,2009-07-01T04:30:00Z,30.3085,-88.1395,2.573,13.77,1111122 
DISL,ioos:station:DISL:CATA:1,2009-07-01T05:00:00Z,30.3085,-88.1395,2.604,13.61,1111122 
DISL,ioos:station:DISL:CATA:1,2009-07-01T05:30:00Z,30.3085,-88.1395,2.626,14.55,1111122 
DISL,ioos:station:DISL:CATA:1,2009-07-01T06:00:00Z,30.3085,-88.1395,2.646,14.69,1111122 
DISL,ioos:station:DISL:CATA:1,2009-07-01T06:30:00Z,30.3085,-88.1395,2.672,14.94,1111122 
DISL,ioos:station:DISL:CATA:1,2009-07-01T07:00:00Z,30.3085,-88.1395,2.687,15.2,1111122 
DISL,ioos:station:DISL:CATA:1,2009-07-01T07:30:00Z,30.3085,-88.1395,2.716,15.38,1111122 
DISL,ioos:station:DISL:CATA:1,2009-07-01T08:00:00Z,30.3085,-88.1395,2.734,17.04,1111122 
DISL,ioos:station:DISL:CATA:1,2009-07-01T08:30:00Z,30.3085,-88.1395,2.749,18.14,1111122 
DISL,ioos:station:DISL:CATA:1,2009-07-01T09:00:00Z,30.3085,-88.1395,2.752,19.47,1111122 
DISL,ioos:station:DISL:CATA:1,2009-07-01T09:30:00Z,30.3085,-88.1395,2.77,20.65,1111122 
DISL,ioos:station:DISL:CATA:1,2009-07-01T10:00:00Z,30.3085,-88.1395,2.779,22.83,1111122 
DISL,ioos:station:DISL:CATA:1,2009-07-01T10:30:00Z,30.3085,-88.1395,2.786,24.87,1111122 
DISL,ioos:station:DISL:CATA:1,2009-07-01T11:00:00Z,30.3085,-88.1395,2.791,26.82,1111122 
DISL,ioos:station:DISL:CATA:1,2009-07-01T11:30:00Z,30.3085,-88.1395,2.805,27.4,1111122 
DISL,ioos:station:DISL:CATA:1,2009-07-01T12:00:00Z,30.3085,-88.1395,2.801,28.04,1111122 
DISL,ioos:station:DISL:CATA:1,2009-07-01T12:30:00Z,30.3085,-88.1395,2.801,29.02,1111122 
DISL,ioos:station:DISL:CATA:1,2009-07-01T13:00:00Z,30.3085,-88.1395,2.803,29.32,1111122 
DISL,ioos:station:DISL:CATA:1,2009-07-01T13:30:00Z,30.3085,-88.1395,2.781,29.55,1111122 
DISL,ioos:station:DISL:CATA:1,2009-07-01T14:00:00Z,30.3085,-88.1395,2.754,29.8,1111122 
DISL,ioos:station:DISL:CATA:1,2009-07-01T14:30:00Z,30.3085,-88.1395,2.738,29.89,1111122 
DISL,ioos:station:DISL:CATA:1,2009-07-01T15:00:00Z,30.3085,-88.1395,2.701,29.97,1111122 
DISL,ioos:station:DISL:CATA:1,2009-07-01T15:30:00Z,30.3085,-88.1395,2.683,30.17,1111122 
DISL,ioos:station:DISL:CATA:1,2009-07-01T16:00:00Z,30.3085,-88.1395,2.641,29.67,1111122 
DISL,ioos:station:DISL:CATA:1,2009-07-01T16:30:00Z,30.3085,-88.1395,2.615,23.27,1111122 
DISL,ioos:station:DISL:CATA:1,2009-07-01T17:00:00Z,30.3085,-88.1395,2.576,17.42,1111122 
DISL,ioos:station:DISL:CATA:1,2009-07-01T17:30:00Z,30.3085,-88.1395,2.542,16.03,1111122 
DISL,ioos:station:DISL:CATA:1,2009-07-01T18:00:00Z,30.3085,-88.1395,2.52,16.02,1111122 
DISL,ioos:station:DISL:CATA:1,2009-07-01T18:30:00Z,30.3085,-88.1395,2.497,15.23,1111122 
DISL,ioos:station:DISL:CATA:1,2009-07-01T19:00:00Z,30.3085,-88.1395,2.462,15.1,1111122 
DISL,ioos:station:DISL:CATA:1,2009-07-01T19:30:00Z,30.3085,-88.1395,2.447,15.77,1111122 
DISL,ioos:station:DISL:CATA:1,2009-07-01T20:00:00Z,30.3085,-88.1395,2.428,16.68,1111122 
DISL,ioos:station:DISL:CATA:1,2009-07-01T20:30:00Z,30.3085,-88.1395,2.402,16.9,1111122 
DISL,ioos:station:DISL:CATA:1,2009-07-01T21:00:00Z,30.3085,-88.1395,2.383,17.23,1111122 
DISL,ioos:station:DISL:CATA:1,2009-07-01T21:30:00Z,30.3085,-88.1395,2.368,17.7,1111122 
DISL,ioos:station:DISL:CATA:1,2009-07-01T22:00:00Z,30.3085,-88.1395,2.361,17.26,1111122 
DISL,ioos:station:DISL:CATA:1,2009-07-01T22:30:00Z,30.3085,-88.1395,2.36,17.39,1111122 
DISL,ioos:station:DISL:CATA:1,2009-07-01T23:00:00Z,30.3085,-88.1395,2.363,17.46,1111122 
DISL,ioos:station:DISL:CATA:1,2009-07-01T23:30:00Z,30.3085,-88.1395,2.38,17.67,1111122 
DISL,ioos:station:DISL:CATA:1,2009-07-02T00:00:00Z,30.3085,-88.1395,2.4,17.72,1111122 
DISL,ioos:station:DISL:CATA:1,2009-07-02T00:30:00Z,30.3085,-88.1395,2.411,15.66,1111122 
DISL,ioos:station:DISL:CATA:1,2009-07-02T01:00:00Z,30.3085,-88.1395,2.437,14.79,1111122 
DISL,ioos:station:DISL:CATA:1,2009-07-02T01:30:00Z,30.3085,-88.1395,2.459,15.25,1111122 
DISL,ioos:station:DISL:CATA:1,2009-07-02T02:00:00Z,30.3085,-88.1395,2.477,14.4,1111122 
DISL,ioos:station:DISL:CATA:1,2009-07-02T02:30:00Z,30.3085,-88.1395,2.49,14.83,1111122 
DISL,ioos:station:DISL:CATA:1,2009-07-02T03:00:00Z,30.3085,-88.1395,2.509,15.5,1111122 
DISL,ioos:station:DISL:CATA:1,2009-07-02T03:30:00Z,30.3085,-88.1395,2.532,15.2,1111122 
DISL,ioos:station:DISL:CATA:1,2009-07-02T04:00:00Z,30.3085,-88.1395,2.567,15.8,1111122 
DISL,ioos:station:DISL:CATA:1,2009-07-02T04:30:00Z,30.3085,-88.1395,2.602,16.67,1111122 
DISL,ioos:station:DISL:CATA:1,2009-07-02T05:00:00Z,30.3085,-88.1395,2.633,16.27,1111122 
DISL,ioos:station:DISL:CATA:1,2009-07-02T05:30:00Z,30.3085,-88.1395,2.642,17.92,1111122 
DISL,ioos:station:DISL:CATA:1,2009-07-02T06:00:00Z,30.3085,-88.1395,2.66,19.55,1111122 
DISL,ioos:station:DISL:CATA:1,2009-07-02T06:30:00Z,30.3085,-88.1395,2.686,20.7,1111122 
DISL,ioos:station:DISL:CATA:1,2009-07-02T07:00:00Z,30.3085,-88.1395,2.713,20.57,1111122 
DISL,ioos:station:DISL:CATA:1,2009-07-02T07:30:00Z,30.3085,-88.1395,2.734,20.7,1111122 
DISL,ioos:station:DISL:CATA:1,2009-07-02T08:00:00Z,30.3085,-88.1395,2.763,20.92,1111122 
DISL,ioos:station:DISL:CATA:1,2009-07-02T08:30:00Z,30.3085,-88.1395,2.796,20.35,1111122 
DISL,ioos:station:DISL:CATA:1,2009-07-02T09:00:00Z,30.3085,-88.1395,2.819,20.26,1111122 
DISL,ioos:station:DISL:CATA:1,2009-07-02T09:30:00Z,30.3085,-88.1395,2.838,20.17,1111122 
DISL,ioos:station:DISL:CATA:1,2009-07-02T10:00:00Z,30.3085,-88.1395,2.864,21.3,1111122 
DISL,ioos:station:DISL:CATA:1,2009-07-02T10:30:00Z,30.3085,-88.1395,2.873,21.95,1111122 
DISL,ioos:station:DISL:CATA:1,2009-07-02T11:00:00Z,30.3085,-88.1395,2.882,21.76,1111122 
DISL,ioos:station:DISL:CATA:1,2009-07-02T11:30:00Z,30.3085,-88.1395,2.886,22.68,1111122 
DISL,ioos:station:DISL:CATA:1,2009-07-02T12:00:00Z,30.3085,-88.1395,2.882,23.35,1111122 
DISL,ioos:station:DISL:CATA:1,2009-07-02T12:30:00Z,30.3085,-88.1395,2.881,22.38,1111122 
DISL,ioos:station:DISL:CATA:1,2009-07-02T13:00:00Z,30.3085,-88.1395,2.886,22.4,1111122 
DISL,ioos:station:DISL:CATA:1,2009-07-02T13:30:00Z,30.3085,-88.1395,2.886,24.37,1111122 
DISL,ioos:station:DISL:CATA:1,2009-07-02T14:00:00Z,30.3085,-88.1395,2.888,23.49,1111122 
DISL,ioos:station:DISL:CATA:1,2009-07-02T14:30:00Z,30.3085,-88.1395,2.862,23.75,1111122 
DISL,ioos:station:DISL:CATA:1,2009-07-02T15:00:00Z,30.3085,-88.1395,2.829,24.91,1111122 
DISL,ioos:station:DISL:CATA:1,2009-07-02T15:30:00Z,30.3085,-88.1395,2.801,25.2,1111122 
DISL,ioos:station:DISL:CATA:1,2009-07-02T16:00:00Z,30.3085,-88.1395,2.776,24.48,1111122 
DISL,ioos:station:DISL:CATA:1,2009-07-02T16:30:00Z,30.3085,-88.1395,2.742,24.73,1111122 
DISL,ioos:station:DISL:CATA:1,2009-07-02T17:00:00Z,30.3085,-88.1395,2.699,25.98,1111122 
DISL,ioos:station:DISL:CATA:1,2009-07-02T17:30:00Z,30.3085,-88.1395,2.659,26.94,1111122 
DISL,ioos:station:DISL:CATA:1,2009-07-02T18:00:00Z,30.3085,-88.1395,2.617,27.41,1111122 
DISL,ioos:station:DISL:CATA:1,2009-07-02T18:30:00Z,30.3085,-88.1395,2.582,26.89,1111122 
DISL,ioos:station:DISL:CATA:1,2009-07-02T19:00:00Z,30.3085,-88.1395,2.545,25.51,1111122 
DISL,ioos:station:DISL:CATA:1,2009-07-02T19:30:00Z,30.3085,-88.1395,2.464,24.72,1111122 
DISL,ioos:station:DISL:CATA:1,2009-07-02T20:00:00Z,30.3085,-88.1395,2.431,24.34,1111122 
DISL,ioos:station:DISL:CATA:1,2009-07-02T20:30:00Z,30.3085,-88.1395,2.405,24.62,1111122 
DISL,ioos:station:DISL:CATA:1,2009-07-02T21:00:00Z,30.3085,-88.1395,2.384,24.84,1111122 
DISL,ioos:station:DISL:CATA:1,2009-07-02T21:30:00Z,30.3085,-88.1395,2.365,25.14,1111122 
DISL,ioos:station:DISL:CATA:1,2009-07-02T22:00:00Z,30.3085,-88.1395,2.354,24.84,1111122 
DISL,ioos:station:DISL:CATA:1,2009-07-02T22:30:00Z,30.3085,-88.1395,2.345,22.49,1111122 
DISL,ioos:station:DISL:CATA:1,2009-07-02T23:00:00Z,30.3085,-88.1395,2.35,22.15,1111122 
DISL,ioos:station:DISL:CATA:1,2009-07-02T23:30:00Z,30.3085,-88.1395,2.374,22.11,1111122 
DISL,ioos:station:DISL:CATA:1,2009-07-03T00:00:00Z,30.3085,-88.1395,2.363,23.56,1111122 
DISL,ioos:station:DISL:CATA:1,2009-07-03T00:30:00Z,30.3085,-88.1395,2.352,25.64,1111122 
DISL,ioos:station:DISL:CATA:1,2009-07-03T01:00:00Z,30.3085,-88.1395,2.368,23.79,1111122 
DISL,ioos:station:DISL:CATA:1,2009-07-03T01:30:00Z,30.3085,-88.1395,2.393,24.22,1111122 
DISL,ioos:station:DISL:CATA:1,2009-07-03T02:00:00Z,30.3085,-88.1395,2.43,24.13,1111122 
DISL,ioos:station:DISL:CATA:1,2009-07-03T02:30:00Z,30.3085,-88.1395,2.447,24.46,1111122 
DISL,ioos:station:DISL:CATA:1,2009-07-03T03:00:00Z,30.3085,-88.1395,2.427,24.23,1111122 
DISL,ioos:station:DISL:CATA:1,2009-07-03T03:30:00Z,30.3085,-88.1395,2.404,22.85,1111122 
DISL,ioos:station:DISL:CATA:1,2009-07-03T04:00:00Z,30.3085,-88.1395,2.43,21.53,1111122 
DISL,ioos:station:DISL:CATA:1,2009-07-03T04:30:00Z,30.3085,-88.1395,2.467,22.16,1111122 
DISL,ioos:station:DISL:CATA:1,2009-07-03T05:00:00Z,30.3085,-88.1395,2.468,20.83,1111122 
DISL,ioos:station:DISL:CATA:1,2009-07-03T05:30:00Z,30.3085,-88.1395,2.492,21.3,1111122 
DISL,ioos:station:DISL:CATA:1,2009-07-03T06:00:00Z,30.3085,-88.1395,2.527,21.47,1111122 
DISL,ioos:station:DISL:CATA:1,2009-07-03T06:30:00Z,30.3085,-88.1395,2.551,22.42,1111122 
DISL,ioos:station:DISL:CATA:1,2009-07-03T07:00:00Z,30.3085,-88.1395,2.556,22.41,1111122 
DISL,ioos:station:DISL:CATA:1,2009-07-03T07:30:00Z,30.3085,-88.1395,2.602,22.51,1111122 
DISL,ioos:station:DISL:CATA:1,2009-07-03T08:00:00Z,30.3085,-88.1395,2.629,21.72,1111122 
DISL,ioos:station:DISL:CATA:1,2009-07-03T08:30:00Z,30.3085,-88.1395,2.652,23.92,1111122 
DISL,ioos:station:DISL:CATA:1,2009-07-03T09:00:00Z,30.3085,-88.1395,2.68,25.45,1111122 
DISL,ioos:station:DISL:CATA:1,2009-07-03T09:30:00Z,30.3085,-88.1395,2.706,25.05,1111122 
DISL,ioos:station:DISL:CATA:1,2009-07-03T10:00:00Z,30.3085,-88.1395,2.742,25.53,1111122 
DISL,ioos:station:DISL:CATA:1,2009-07-03T10:30:00Z,30.3085,-88.1395,2.765,25.13,1111122 
DISL,ioos:station:DISL:CATA:1,2009-07-03T11:00:00Z,30.3085,-88.1395,2.775,25.21,1111122 
DISL,ioos:station:DISL:CATA:1,2009-07-03T11:30:00Z,30.3085,-88.1395,2.8,25.17,1111122 
DISL,ioos:station:DISL:CATA:1,2009-07-03T12:00:00Z,30.3085,-88.1395,2.805,25.01,1111122 
DISL,ioos:station:DISL:CATA:1,2009-07-03T12:30:00Z,30.3085,-88.1395,2.81,25.09,1111122 
DISL,ioos:station:DISL:CATA:1,2009-07-03T13:00:00Z,30.3085,-88.1395,2.808,25.13,1111122 
DISL,ioos:station:DISL:CATA:1,2009-07-03T13:30:00Z,30.3085,-88.1395,2.808,25.15,1111122 
DISL,ioos:station:DISL:CATA:1,2009-07-03T14:00:00Z,30.3085,-88.1395,2.821,25.27,1111122 
DISL,ioos:station:DISL:CATA:1,2009-07-03T14:30:00Z,30.3085,-88.1395,2.807,25.15,1111122 
DISL,ioos:station:DISL:CATA:1,2009-07-03T15:00:00Z,30.3085,-88.1395,2.796,24.26,1111122 
DISL,ioos:station:DISL:CATA:1,2009-07-03T15:30:00Z,30.3085,-88.1395,2.779,23.93,1111122 
DISL,ioos:station:DISL:CATA:1,2009-07-03T16:00:00Z,30.3085,-88.1395,2.748,24.33,1111122 
DISL,ioos:station:DISL:CATA:1,2009-07-03T16:30:00Z,30.3085,-88.1395,2.716,22.5,1111122 
DISL,ioos:station:DISL:CATA:1,2009-07-03T17:00:00Z,30.3085,-88.1395,2.681,20.66,1111122 
DISL,ioos:station:DISL:CATA:1,2009-07-03T17:30:00Z,30.3085,-88.1395,2.643,18.47,1111122 
DISL,ioos:station:DISL:CATA:1,2009-07-03T18:00:00Z,30.3085,-88.1395,2.602,17.68,1111122 
DISL,ioos:station:DISL:CATA:1,2009-07-03T18:30:00Z,30.3085,-88.1395,2.557,16.68,1111122 
DISL,ioos:station:DISL:CATA:1,2009-07-03T19:00:00Z,30.3085,-88.1395,2.51,15.87,1111122 
DISL,ioos:station:DISL:CATA:1,2009-07-03T19:30:00Z,30.3085,-88.1395,2.462,15.39,1111122 
DISL,ioos:station:DISL:CATA:1,2009-07-03T20:00:00Z,30.3085,-88.1395,2.42,15.04,1111122 
DISL,ioos:station:DISL:CATA:1,2009-07-03T20:30:00Z,30.3085,-88.1395,2.386,14.73,1111122 
DISL,ioos:station:DISL:CATA:1,2009-07-03T21:00:00Z,30.3085,-88.1395,2.359,14.47,1111122 
DISL,ioos:station:DISL:CATA:1,2009-07-03T21:30:00Z,30.3085,-88.1395,2.337,14.37,1111122 
DISL,ioos:station:DISL:CATA:1,2009-07-03T22:00:00Z,30.3085,-88.1395,2.317,13.94,1111122 
DISL,ioos:station:DISL:CATA:1,2009-07-03T22:30:00Z,30.3085,-88.1395,2.297,14.08,1111122 
DISL,ioos:station:DISL:CATA:1,2009-07-03T23:00:00Z,30.3085,-88.1395,2.289,13.58,1111122 
DISL,ioos:station:DISL:CATA:1,2009-07-03T23:30:00Z,30.3085,-88.1395,2.288,13.91,1111122 
DISL,ioos:station:DISL:CATA:1,2009-07-04T00:00:00Z,30.3085,-88.1395,2.268,13.92,1111122 
DISL,ioos:station:DISL:CATA:1,2009-07-04T00:30:00Z,30.3085,-88.1395,2.277,13.85,1111122 
DISL,ioos:station:DISL:CATA:1,2009-07-04T01:00:00Z,30.3085,-88.1395,2.291,13.92,1111122 
DISL,ioos:station:DISL:CATA:1,2009-07-04T01:30:00Z,30.3085,-88.1395,2.314,14.36,1111122 
DISL,ioos:station:DISL:CATA:1,2009-07-04T02:00:00Z,30.3085,-88.1395,2.336,14.48,1111122 
DISL,ioos:station:DISL:CATA:1,2009-07-04T02:30:00Z,30.3085,-88.1395,2.339,13.78,1111122 
DISL,ioos:station:DISL:CATA:1,2009-07-04T03:00:00Z,30.3085,-88.1395,2.36,13.65,1111122 
DISL,ioos:station:DISL:CATA:1,2009-07-04T03:30:00Z,30.3085,-88.1395,2.38,13.71,1111122 
DISL,ioos:station:DISL:CATA:1,2009-07-04T04:00:00Z,30.3085,-88.1395,2.401,13.09,1111122 
DISL,ioos:station:DISL:CATA:1,2009-07-04T04:30:00Z,30.3085,-88.1395,2.429,13.05,1111122 
DISL,ioos:station:DISL:CATA:1,2009-07-04T05:00:00Z,30.3085,-88.1395,2.45,13.56,1111122 
DISL,ioos:station:DISL:CATA:1,2009-07-04T05:30:00Z,30.3085,-88.1395,2.48,13.98,1111122 
DISL,ioos:station:DISL:CATA:1,2009-07-04T06:00:00Z,30.3085,-88.1395,2.506,14.96,1111122 
DISL,ioos:station:DISL:CATA:1,2009-07-04T06:30:00Z,30.3085,-88.1395,2.532,15.97,1111122 
DISL,ioos:station:DISL:CATA:1,2009-07-04T07:00:00Z,30.3085,-88.1395,2.554,16.54,1111122 
DISL,ioos:station:DISL:CATA:1,2009-07-04T07:30:00Z,30.3085,-88.1395,2.582,16.59,1111122 
DISL,ioos:station:DISL:CATA:1,2009-07-04T08:00:00Z,30.3085,-88.1395,2.617,17.18,1111122 
DISL,ioos:station:DISL:CATA:1,2009-07-04T08:30:00Z,30.3085,-88.1395,2.649,18.3,1111122 
DISL,ioos:station:DISL:CATA:1,2009-07-04T09:00:00Z,30.3085,-88.1395,2.679,17.8,1111122 
DISL,ioos:station:DISL:CATA:1,2009-07-04T09:30:00Z,30.3085,-88.1395,2.709,18.9,1111122 
DISL,ioos:station:DISL:CATA:1,2009-07-04T10:00:00Z,30.3085,-88.1395,2.737,20.37,1111122 
DISL,ioos:station:DISL:CATA:1,2009-07-04T10:30:00Z,30.3085,-88.1395,2.751,21.31,1111122 
DISL,ioos:station:DISL:CATA:1,2009-07-04T11:00:00Z,30.3085,-88.1395,2.777,21.97,1111122 
DISL,ioos:station:DISL:CATA:1,2009-07-04T11:30:00Z,30.3085,-88.1395,2.788,23.31,1111122 
DISL,ioos:station:DISL:CATA:1,2009-07-04T12:00:00Z,30.3085,-88.1395,2.809,24.21,1111122 
DISL,ioos:station:DISL:CATA:1,2009-07-04T12:30:00Z,30.3085,-88.1395,2.821,25.55,1111122 
DISL,ioos:station:DISL:CATA:1,2009-07-04T13:00:00Z,30.3085,-88.1395,2.834,26.95,1111122 
DISL,ioos:station:DISL:CATA:1,2009-07-04T13:30:00Z,30.3085,-88.1395,2.85,27.72,1111122 
DISL,ioos:station:DISL:CATA:1,2009-07-04T14:00:00Z,30.3085,-88.1395,2.852,28.35,1111122 
DISL,ioos:station:DISL:CATA:1,2009-07-04T14:30:00Z,30.3085,-88.1395,2.856,28.7,1111122 
DISL,ioos:station:DISL:CATA:1,2009-07-04T15:00:00Z,30.3085,-88.1395,2.859,29.05,1111122 
DISL,ioos:station:DISL:CATA:1,2009-07-04T15:30:00Z,30.3085,-88.1395,2.826,29.24,1111122 
DISL,ioos:station:DISL:CATA:1,2009-07-04T16:00:00Z,30.3085,-88.1395,2.809,29.42,1111122 
DISL,ioos:station:DISL:CATA:1,2009-07-04T16:30:00Z,30.3085,-88.1395,2.779,29.54,1111122 
DISL,ioos:station:DISL:CATA:1,2009-07-04T17:00:00Z,30.3085,-88.1395,2.739,29.45,1111122 
DISL,ioos:station:DISL:CATA:1,2009-07-04T17:30:00Z,30.3085,-88.1395,2.706,26.82,1111122 
DISL,ioos:station:DISL:CATA:1,2009-07-04T18:00:00Z,30.3085,-88.1395,2.677,17.3,1111122 
DISL,ioos:station:DISL:CATA:1,2009-07-04T18:30:00Z,30.3085,-88.1395,2.634,17.25,1111122 
DISL,ioos:station:DISL:CATA:1,2009-07-04T19:00:00Z,30.3085,-88.1395,2.601,17.12,1111122 
DISL,ioos:station:DISL:CATA:1,2009-07-04T19:30:00Z,30.3085,-88.1395,2.624,16.66,1111122 
DISL,ioos:station:DISL:CATA:1,2009-07-04T20:00:00Z,30.3085,-88.1395,2.47,16.49,1111122 
DISL,ioos:station:DISL:CATA:1,2009-07-04T20:30:00Z,30.3085,-88.1395,2.432,16.72,1111122 
DISL,ioos:station:DISL:CATA:1,2009-07-04T21:00:00Z,30.3085,-88.1395,2.411,17.03,1111122 
DISL,ioos:station:DISL:CATA:1,2009-07-04T21:30:00Z,30.3085,-88.1395,2.401,17.29,1111122 
DISL,ioos:station:DISL:CATA:1,2009-07-04T22:00:00Z,30.3085,-88.1395,2.36,17.56,1111122 
DISL,ioos:station:DISL:CATA:1,2009-07-04T22:30:00Z,30.3085,-88.1395,2.337,17.67,1111122 
DISL,ioos:station:DISL:CATA:1,2009-07-04T23:00:00Z,30.3085,-88.1395,2.305,17.97,1111122 
DISL,ioos:station:DISL:CATA:1,2009-07-04T23:30:00Z,30.3085,-88.1395,2.309,17.65,1111122 
DISL,ioos:station:DISL:CATA:1,2009-07-05T00:00:00Z,30.3085,-88.1395,2.292,17.4,1111122 
DISL,ioos:station:DISL:CATA:1,2009-07-05T00:30:00Z,30.3085,-88.1395,2.281,17.81,1111122 
DISL,ioos:station:DISL:CATA:1,2009-07-05T01:00:00Z,30.3085,-88.1395,2.265,17.7,1111122 
DISL,ioos:station:DISL:CATA:1,2009-07-05T01:30:00Z,30.3085,-88.1395,2.254,17.37,1111122 
DISL,ioos:station:DISL:CATA:1,2009-07-05T02:00:00Z,30.3085,-88.1395,2.285,16.99,1111122 
DISL,ioos:station:DISL:CATA:1,2009-07-05T02:30:00Z,30.3085,-88.1395,2.278,17.56,1111122 
DISL,ioos:station:DISL:CATA:1,2009-07-05T03:00:00Z,30.3085,-88.1395,2.297,17.54,1111122 
DISL,ioos:station:DISL:CATA:1,2009-07-05T03:30:00Z,30.3085,-88.1395,2.312,18.77,1111122 
DISL,ioos:station:DISL:CATA:1,2009-07-05T04:00:00Z,30.3085,-88.1395,2.333,19.21,1111122 
DISL,ioos:station:DISL:CATA:1,2009-07-05T04:30:00Z,30.3085,-88.1395,2.372,16.73,1111122 
DISL,ioos:station:DISL:CATA:1,2009-07-05T05:00:00Z,30.3085,-88.1395,2.4,15.36,1111122 
DISL,ioos:station:DISL:CATA:1,2009-07-05T05:30:00Z,30.3085,-88.1395,2.408,15.74,1111122 
DISL,ioos:station:DISL:CATA:1,2009-07-05T06:00:00Z,30.3085,-88.1395,2.428,16.09,1111122 
DISL,ioos:station:DISL:CATA:1,2009-07-05T06:30:00Z,30.3085,-88.1395,2.458,16.18,1111122 
DISL,ioos:station:DISL:CATA:1,2009-07-05T07:00:00Z,30.3085,-88.1395,2.484,16.34,1111122 
DISL,ioos:station:DISL:CATA:1,2009-07-05T07:30:00Z,30.3085,-88.1395,2.497,16.71,1111122 
DISL,ioos:station:DISL:CATA:1,2009-07-05T08:00:00Z,30.3085,-88.1395,2.544,18.46,1111122 
DISL,ioos:station:DISL:CATA:1,2009-07-05T08:30:00Z,30.3085,-88.1395,2.592,20.32,1111122 
DISL,ioos:station:DISL:CATA:1,2009-07-05T09:00:00Z,30.3085,-88.1395,2.611,20.26,1111122 
DISL,ioos:station:DISL:CATA:1,2009-07-05T09:30:00Z,30.3085,-88.1395,2.64,20.02,1111122 
DISL,ioos:station:DISL:CATA:1,2009-07-05T10:00:00Z,30.3085,-88.1395,2.671,20.43,1111122 
DISL,ioos:station:DISL:CATA:1,2009-07-05T10:30:00Z,30.3085,-88.1395,2.696,20.7,1111122 
DISL,ioos:station:DISL:CATA:1,2009-07-05T11:00:00Z,30.3085,-88.1395,2.741,20.74,1111122 
DISL,ioos:station:DISL:CATA:1,2009-07-05T11:30:00Z,30.3085,-88.1395,2.735,21.18,1111122 
DISL,ioos:station:DISL:CATA:1,2009-07-05T12:00:00Z,30.3085,-88.1395,2.783,21.83,1111122 
DISL,ioos:station:DISL:CATA:1,2009-07-05T12:30:00Z,30.3085,-88.1395,2.813,21.95,1111122 
DISL,ioos:station:DISL:CATA:1,2009-07-05T13:00:00Z,30.3085,-88.1395,2.855,21.79,1111122 
DISL,ioos:station:DISL:CATA:1,2009-07-05T13:30:00Z,30.3085,-88.1395,2.854,22.45,1111122 
DISL,ioos:station:DISL:CATA:1,2009-07-05T14:00:00Z,30.3085,-88.1395,2.851,22.93,1111122 
DISL,ioos:station:DISL:CATA:1,2009-07-05T14:30:00Z,30.3085,-88.1395,2.853,22.91,1111122 
DISL,ioos:station:DISL:CATA:1,2009-07-05T15:00:00Z,30.3085,-88.1395,2.875,23.37,1111122 
DISL,ioos:station:DISL:CATA:1,2009-07-05T15:30:00Z,30.3085,-88.1395,2.856,23.82,1111122 
DISL,ioos:station:DISL:CATA:1,2009-07-05T16:00:00Z,30.3085,-88.1395,2.852,24.19,1111122 
DISL,ioos:station:DISL:CATA:1,2009-07-05T16:30:00Z,30.3085,-88.1395,2.833,24.53,1111122 
DISL,ioos:station:DISL:CATA:1,2009-07-05T17:00:00Z,30.3085,-88.1395,2.805,24.72,1111122 
DISL,ioos:station:DISL:CATA:1,2009-07-05T17:30:00Z,30.3085,-88.1395,2.76,24.77,1111122 
DISL,ioos:station:DISL:CATA:1,2009-07-05T18:00:00Z,30.3085,-88.1395,2.733,24.73,1111122 
DISL,ioos:station:DISL:CATA:1,2009-07-05T18:30:00Z,30.3085,-88.1395,2.708,24.69,1111122 
DISL,ioos:station:DISL:CATA:1,2009-07-05T19:00:00Z,30.3085,-88.1395,2.668,24.65,1111122 
DISL,ioos:station:DISL:CATA:1,2009-07-05T19:30:00Z,30.3085,-88.1395,2.622,24.72,1111122 
DISL,ioos:station:DISL:CATA:1,2009-07-05T20:00:00Z,30.3085,-88.1395,2.586,24.86,1111122 
DISL,ioos:station:DISL:CATA:1,2009-07-05T20:30:00Z,30.3085,-88.1395,2.547,24.26,1111122 
DISL,ioos:station:DISL:CATA:1,2009-07-05T21:00:00Z,30.3085,-88.1395,2.511,24.46,1111122 
DISL,ioos:station:DISL:CATA:1,2009-07-05T21:30:00Z,30.3085,-88.1395,2.461,25.74,1111122 
DISL,ioos:station:DISL:CATA:1,2009-07-05T22:00:00Z,30.3085,-88.1395,2.425,25.93,1111122 
DISL,ioos:station:DISL:CATA:1,2009-07-05T22:30:00Z,30.3085,-88.1395,2.391,26.31,1111122 
DISL,ioos:station:DISL:CATA:1,2009-07-05T23:00:00Z,30.3085,-88.1395,2.366,26.74,1111122 
DISL,ioos:station:DISL:CATA:1,2009-07-05T23:30:00Z,30.3085,-88.1395,2.344,26.77,1111122 
DISL,ioos:station:DISL:CATA:1,2009-07-06T00:00:00Z,30.3085,-88.1395,2.322,26.53,1111122 
DISL,ioos:station:DISL:CATA:1,2009-07-06T00:30:00Z,30.3085,-88.1395,2.307,26.58,1111122 
DISL,ioos:station:DISL:CATA:1,2009-07-06T01:00:00Z,30.3085,-88.1395,2.307,25.75,1111122 
DISL,ioos:station:DISL:CATA:1,2009-07-06T01:30:00Z,30.3085,-88.1395,2.305,25.47,1111122 
DISL,ioos:station:DISL:CATA:1,2009-07-06T02:00:00Z,30.3085,-88.1395,2.301,25.38,1111122 
DISL,ioos:station:DISL:CATA:1,2009-07-06T02:30:00Z,30.3085,-88.1395,2.299,25.58,1111122 
DISL,ioos:station:DISL:CATA:1,2009-07-06T03:00:00Z,30.3085,-88.1395,2.301,25.4,1111122 
DISL,ioos:station:DISL:CATA:1,2009-07-06T03:30:00Z,30.3085,-88.1395,2.311,24.97,1111122 
DISL,ioos:station:DISL:CATA:1,2009-07-06T04:00:00Z,30.3085,-88.1395,2.317,24.69,1111122 
DISL,ioos:station:DISL:CATA:1,2009-07-06T04:30:00Z,30.3085,-88.1395,2.323,25.05,1111122 
DISL,ioos:station:DISL:CATA:1,2009-07-06T05:00:00Z,30.3085,-88.1395,2.348,24.9,1111122 
DISL,ioos:station:DISL:CATA:1,2009-07-06T05:30:00Z,30.3085,-88.1395,2.373,24.73,1111122 
DISL,ioos:station:DISL:CATA:1,2009-07-06T06:00:00Z,30.3085,-88.1395,2.396,24.69,1111122 
DISL,ioos:station:DISL:CATA:1,2009-07-06T06:30:00Z,30.3085,-88.1395,2.4,24.23,1111122 
DISL,ioos:station:DISL:CATA:1,2009-07-06T07:00:00Z,30.3085,-88.1395,2.432,23.79,1111122 
DISL,ioos:station:DISL:CATA:1,2009-07-06T07:30:00Z,30.3085,-88.1395,2.457,23.07,1111122 
DISL,ioos:station:DISL:CATA:1,2009-07-06T08:00:00Z,30.3085,-88.1395,2.482,23.23,1111122 
DISL,ioos:station:DISL:CATA:1,2009-07-06T08:30:00Z,30.3085,-88.1395,2.509,23.54,1111122 
DISL,ioos:station:DISL:CATA:1,2009-07-06T09:00:00Z,30.3085,-88.1395,2.537,24.16,1111122 
DISL,ioos:station:DISL:CATA:1,2009-07-06T09:30:00Z,30.3085,-88.1395,2.58,24.48,1111122 
DISL,ioos:station:DISL:CATA:1,2009-07-06T10:00:00Z,30.3085,-88.1395,2.601,24.94,1111122 
DISL,ioos:station:DISL:CATA:1,2009-07-06T10:30:00Z,30.3085,-88.1395,2.616,24.87,1111122 
DISL,ioos:station:DISL:CATA:1,2009-07-06T11:00:00Z,30.3085,-88.1395,2.658,25.87,1111122 
DISL,ioos:station:DISL:CATA:1,2009-07-06T11:30:00Z,30.3085,-88.1395,2.673,27.24,1111122 
DISL,ioos:station:DISL:CATA:1,2009-07-06T12:00:00Z,30.3085,-88.1395,2.705,27.72,1111122 
DISL,ioos:station:DISL:CATA:1,2009-07-06T12:30:00Z,30.3085,-88.1395,2.738,27.73,1111122 
DISL,ioos:station:DISL:CATA:1,2009-07-06T13:00:00Z,30.3085,-88.1395,2.765,27.82,1111122 
DISL,ioos:station:DISL:CATA:1,2009-07-06T13:30:00Z,30.3085,-88.1395,2.797,27.74,1111122 
DISL,ioos:station:DISL:CATA:1,2009-07-06T14:00:00Z,30.3085,-88.1395,2.787,27.8,1111122 